ARIANE 5 R/B (28499 NORAD) Tracking and Keplerian Element Data

This shows tracking and keplerian element data for the satellite.

Feedback or suggestion? Click here.




ElementValue
Catalog28499
NameARIANE 5 R/B
Epoch Orbit75470
Epoch Day348.90608446
Epoch Year2018
RAAN79.1909
Inclination98.056
Eccentricity0.0091001
Argument of Perigee252.4232
Mean Anonmoly210.3803
Mean Motion14.79937078
Decay Rate2.3E-07
L11 28499U 04049H 18348.90608446 .00000023 00000-0 10468-4 0 9998
L22 28499 98.0560 79.1909 0091001 252.4232 210.3803 14.79937078754703

Live tracking and technical data element details for ARIANE 5 R/B (NORAD 28499). ARIANE 5 R/B can be tracked NOW for your location showing map with azimuth and elevation plus other details from your city location.

Track the satellite on the map from your city or location and see movement details for azimuth, elevation, latitude, longitude, range, height, and movement on the map or in text.







IsCatalogInMostPopularTable: catalog: 28499, numindb: 37
Update: records affected: 1



GetName: 28499 ARIANE 5 R/B

Hit Count: updated at: Sat, 15 Dec 2018 13:17:03 GMT